Fremont, NE

11:06 AM CDT on July 23, 2017 (GMT -0500)
Fremont Municipal

Weather History for KFET - January, 2012

Change the Weather History Date:

Sunday, January 1, 2012

  Actual Average Record
Temperature  
Mean Temperature 34 °F -  
Max Temperature 41 °F 30 °F 58 °F (1954)
Min Temperature 28 °F 12 °F -15 °F (1974)
Degree Days  
Heating Degree Days 30    
Moisture  
Dew Point 16 °F    
Average Humidity 51    
Maximum Humidity 75    
Minimum Humidity 18    
Precipitation  
Precipitation 0.00 in - - ()
Sea Level Pressure  
Sea Level Pressure 30.34 in    
Wind  
Wind Speed 24 mph (WNW)    
Max Wind Speed 39 mph    
Max Gust Speed 50 mph    
Visibility 10 miles    
Events      
Averages and records for this station are not official NWS values.
T = Trace of Precipitation, MM = Missing Value Source: NWS Daily Summary

Daily Weather History Graph

Daily Weather History Graph

Search for Another Location

Airport or City:

Trip Planner

Search our weather history database for the weather conditions in past years. The results will help you decide how hot, cold, wet, or windy it might be!

Date:

Astronomy

Jan. 01, 2012 Rise Set
Actual Time 7:52 AM CST 5:06 PM CST
Civil Twilight 7:21 AM CST 5:38 PM CST
Nautical Twilight 6:46 AM CST 6:12 PM CST
Astronomical Twilight 6:12 AM CST 6:46 PM CST
Moon 11:58 AM CST (1/1) 12:45 AM CST (1/1)
Length of Visible Light 10h 16m
Length of Day
9h 14m
First Quarter, 55% of the Moon is Illuminated
Jan 1
First Quarter
Jan 9
Full
Jan 16
Last Quarter
Jan 23
New
Jan 30
First Quarter

Hourly Weather History & Observations

Time (CST) Temp. Windchill Dew Point Humidity Pressure Visibility Wind Dir Wind Speed Gust Speed Precip Events Conditions
12:15 AM 37.4 °F 25.6 °F 28.4 °F 70% 30.01 in 10.0 mi NW 26.5 mph 34.5 mph N/A   Clear
12:55 AM 35.6 °F 22.5 °F 28.4 °F 75% 30.03 in 10.0 mi NW 29.9 mph 38.0 mph N/A   Clear
1:15 AM 35.6 °F 22.5 °F 26.6 °F 70% 30.05 in 10.0 mi NW 29.9 mph 39.1 mph N/A   Clear
1:35 AM 35.6 °F 23.0 °F 26.6 °F 70% 30.07 in 10.0 mi NW 27.6 mph 41.4 mph N/A   Clear
1:55 AM 35.6 °F 23.0 °F 26.6 °F 70% 30.09 in 10.0 mi NW 27.6 mph 35.7 mph N/A   Clear
2:15 AM 33.8 °F 21.0 °F 26.6 °F 75% 30.12 in 10.0 mi NW 25.3 mph 36.8 mph N/A   Clear
2:35 AM 33.8 °F 20.3 °F 26.6 °F 75% 30.14 in 10.0 mi NW 28.8 mph 35.7 mph N/A   Clear
2:55 AM 33.8 °F 20.3 °F 26.6 °F 75% 30.16 in 10.0 mi NW 28.8 mph 38.0 mph N/A   Clear
3:15 AM 33.8 °F 20.5 °F 26.6 °F 75% 30.17 in 10.0 mi NW 27.6 mph 31.1 mph N/A   Clear
3:35 AM 33.8 °F 21.6 °F 24.8 °F 70% 30.18 in 10.0 mi NW 23.0 mph 32.2 mph N/A   Clear
3:55 AM 32.0 °F 19.5 °F 23.0 °F 69% 30.19 in 10.0 mi NW 21.9 mph 28.8 mph N/A   Clear
4:15 AM 32.0 °F 21.2 °F 23.0 °F 69% 30.21 in 10.0 mi NW 16.1 mph 21.9 mph N/A   Clear
4:35 AM 32.0 °F 21.2 °F 23.0 °F 69% 30.21 in 10.0 mi NW 16.1 mph - N/A   Clear
4:55 AM 32.0 °F 21.2 °F 23.0 °F 69% 30.23 in 10.0 mi WNW 16.1 mph - N/A   Clear
5:15 AM 32.0 °F 20.5 °F 23.0 °F 69% 30.24 in 10.0 mi WNW 18.4 mph 21.9 mph N/A   Clear
5:35 AM 32.0 °F 20.8 °F 23.0 °F 69% 30.25 in 10.0 mi WNW 17.3 mph 23.0 mph N/A   Clear
5:55 AM 32.0 °F 20.5 °F 21.2 °F 64% 30.26 in 10.0 mi NW 18.4 mph 27.6 mph N/A   Clear
6:15 AM 32.0 °F 21.2 °F 21.2 °F 64% 30.26 in 10.0 mi WNW 16.1 mph - N/A   Clear
6:35 AM 32.0 °F 21.2 °F 21.2 °F 64% 30.28 in 10.0 mi WNW 16.1 mph - N/A   Clear
6:55 AM 30.2 °F 18.9 °F 21.2 °F 69% 30.29 in 10.0 mi WNW 16.1 mph 20.7 mph N/A   Clear
7:15 AM 30.2 °F 19.3 °F 21.2 °F 69% 30.31 in 10.0 mi WNW 15.0 mph - N/A   Clear
7:35 AM 28.4 °F 18.5 °F 21.2 °F 74% 30.31 in 10.0 mi West 11.5 mph - N/A   Clear
7:55 AM 28.4 °F 18.5 °F 21.2 °F 74% 30.31 in 10.0 mi West 11.5 mph - N/A   Clear
8:15 AM 28.4 °F 18.5 °F 21.2 °F 74% 30.33 in 10.0 mi West 11.5 mph - N/A   Clear
8:35 AM 28.4 °F 17.5 °F 21.2 °F 74% 30.34 in 10.0 mi West 13.8 mph - N/A   Clear
9:15 AM 32.0 °F 21.2 °F 21.2 °F 64% 30.36 in 10.0 mi West 16.1 mph - N/A   Scattered Clouds
9:55 AM 33.8 °F 21.9 °F 21.2 °F 60% 30.39 in 10.0 mi West 21.9 mph 27.6 mph N/A   Clear
10:15 AM 35.6 °F 24.0 °F 19.4 °F 52% 30.39 in 10.0 mi WNW 23.0 mph 29.9 mph N/A   Clear
10:35 AM 35.6 °F 23.7 °F 17.6 °F 48% 30.38 in 10.0 mi WNW 24.2 mph 29.9 mph N/A   Clear
10:55 AM 37.4 °F 25.9 °F 17.6 °F 45% 30.39 in 10.0 mi WNW 25.3 mph 34.5 mph N/A   Clear
11:15 AM 39.2 °F 27.8 °F 14.0 °F 36% 30.39 in 10.0 mi WNW 27.6 mph 33.4 mph N/A   Clear
11:35 AM 39.2 °F 27.6 °F 12.2 °F 33% 30.38 in 10.0 mi NW 28.8 mph 36.8 mph N/A   Clear
11:55 AM 41.0 °F 29.1 °F 10.4 °F 29% 30.38 in 10.0 mi WNW 34.5 mph 41.4 mph N/A   Clear
12:15 PM 41.0 °F 28.8 °F 8.6 °F 26% 30.38 in 10.0 mi NW 36.8 mph 47.2 mph N/A   Clear
12:35 PM 41.0 °F 29.0 °F 8.6 °F 26% 30.38 in 10.0 mi NW 35.7 mph 49.5 mph N/A   Clear
12:55 PM 41.0 °F 29.0 °F 6.8 °F 24% 30.38 in 10.0 mi NW 35.7 mph 43.7 mph N/A   Clear
1:15 PM 41.0 °F 29.0 °F 5.0 °F 23% 30.38 in 10.0 mi NW 35.7 mph 47.2 mph N/A   Clear
1:35 PM 41.0 °F 29.3 °F 1.4 °F 19% 30.38 in 10.0 mi WNW 33.4 mph 43.7 mph N/A   Clear
1:55 PM 41.0 °F 28.5 °F -0.4 °F 18% 30.39 in 10.0 mi WNW 39.1 mph 44.9 mph N/A   Clear
2:15 PM 39.2 °F 27.4 °F -0.4 °F 19% 30.39 in 10.0 mi WNW 29.9 mph 41.4 mph N/A   Clear
2:35 PM 39.2 °F 27.8 °F 5.0 °F 24% 30.40 in 10.0 mi NW 27.6 mph 39.1 mph N/A   Clear
2:55 PM 39.2 °F 27.6 °F 5.0 °F 24% 30.41 in 10.0 mi NW 28.8 mph 40.3 mph N/A   Clear
3:15 PM 37.4 °F 24.6 °F 6.8 °F 28% 30.43 in 10.0 mi NW 32.2 mph 41.4 mph N/A   Clear
3:35 PM 37.4 °F 25.2 °F 6.8 °F 28% 30.44 in 10.0 mi NW 28.8 mph 35.7 mph N/A   Clear
3:55 PM 37.4 °F 24.8 °F 6.8 °F 28% 30.45 in 10.0 mi WNW 31.1 mph 39.1 mph N/A   Clear
4:15 PM 35.6 °F 23.7 °F 8.6 °F 33% 30.46 in 10.0 mi NW 24.2 mph 36.8 mph N/A   Clear
4:35 PM 35.6 °F 23.4 °F 8.6 °F 33% 30.47 in 10.0 mi NW 25.3 mph 31.1 mph N/A   Clear
4:55 PM 33.8 °F 22.2 °F 8.6 °F 35% 30.48 in 10.0 mi NW 20.7 mph 29.9 mph N/A   Clear
5:15 PM 32.0 °F 22.1 °F 10.4 °F 41% 30.49 in 10.0 mi NW 13.8 mph - N/A   Clear
5:35 PM 32.0 °F 21.6 °F 10.4 °F 41% 30.50 in 10.0 mi WNW 15.0 mph - N/A   Clear
5:55 PM 32.0 °F 20.5 °F 10.4 °F 41% 30.51 in 10.0 mi NW 18.4 mph 23.0 mph N/A   Clear
6:15 PM 32.0 °F 20.8 °F 10.4 °F 41% 30.51 in 10.0 mi NW 17.3 mph - N/A   Clear
6:35 PM 32.0 °F 22.1 °F 10.4 °F 41% 30.52 in 10.0 mi NW 13.8 mph - N/A   Clear
6:55 PM 30.2 °F 20.2 °F 10.4 °F 44% 30.53 in 10.0 mi NW 12.7 mph - N/A   Clear
7:15 PM 30.2 °F 20.2 °F 10.4 °F 44% 30.53 in 10.0 mi WNW 12.7 mph - N/A   Clear
7:35 PM 30.2 °F 19.8 °F 12.2 °F 47% 30.54 in 10.0 mi WNW 13.8 mph - N/A   Clear
7:55 PM 30.2 °F 19.8 °F 12.2 °F 47% 30.54 in 10.0 mi WNW 13.8 mph - N/A   Clear
8:15 PM 30.2 °F 20.2 °F 12.2 °F 47% 30.54 in 10.0 mi NW 12.7 mph - N/A   Clear
8:35 PM 30.2 °F 18.9 °F 12.2 °F 47% 30.55 in 10.0 mi NW 16.1 mph 23.0 mph N/A   Clear
8:55 PM 30.2 °F 19.3 °F 12.2 °F 47% 30.55 in 10.0 mi NW 15.0 mph 21.9 mph N/A   Clear
9:15 PM 28.4 °F 17.0 °F 12.2 °F 51% 30.55 in 10.0 mi NW 15.0 mph 21.9 mph N/A   Clear
9:35 PM 28.4 °F 16.6 °F 12.2 °F 51% 30.55 in 10.0 mi NW 16.1 mph - N/A   Clear
9:55 PM 28.4 °F 17.0 °F 12.2 °F 51% 30.56 in 10.0 mi NW 15.0 mph - N/A   Clear
10:15 PM 28.4 °F 16.6 °F 12.2 °F 51% 30.57 in 10.0 mi WNW 16.1 mph - N/A   Clear
10:35 PM 28.4 °F 17.5 °F 12.2 °F 51% 30.57 in 10.0 mi WNW 13.8 mph - N/A   Clear
11:15 PM 26.6 °F 16.2 °F 12.2 °F 55% 30.56 in 10.0 mi WNW 11.5 mph 17.3 mph N/A   Clear
11:35 PM 26.6 °F 16.2 °F 12.2 °F 55% 30.56 in 10.0 mi WNW 11.5 mph 18.4 mph N/A   Clear
11:55 PM 26.6 °F 15.7 °F 12.2 °F 55% 30.56 in 10.0 mi WNW 12.7 mph - N/A   Clear